| time (UTC) | temp F | wind direction | speed MPH | gust MPH | rain 1hr in | rain 24hr in | rain mn in | humidity % | barometer mb |
| 20260502210019 | 61 | 297 | 5.0 | 9.0 | 0.00 | 0.00 | 0.00 | 28 | 1018.4 |
| 20260502204523 | 62 | 4 | 7.0 | 10.0 | 0.00 | 0.00 | 0.00 | 31 | 1018.5 |
| 20260502203027 | 62 | 117 | 5.0 | 11.0 | 0.00 | 0.00 | 0.00 | 27 | 1018.8 |
| 20260502201530 | 63 | 356 | 4.0 | 13.0 | 0.00 | 0.00 | 0.00 | 29 | 1018.8 |
| 20260502200008 | 63 | 45 | 5.0 | 11.0 | 0.00 | 0.00 | 0.00 | 29 | 1018.8 |
| 20260502194503 | 63 | 19 | 5.0 | 13.0 | 0.00 | 0.00 | 0.00 | 28 | 1019.1 |
| 20260502193008 | 64 | 56 | 6.0 | 10.0 | 0.00 | 0.00 | 0.00 | 27 | 1019.4 |
| 20260502191512 | 62 | 62 | 2.0 | 8.0 | 0.00 | 0.00 | 0.00 | 29 | 1019.6 |
| 20260502190011 | 62 | 23 | 8.0 | 12.0 | 0.00 | 0.00 | 0.00 | 28 | 1019.6 |
| 20260502184512 | 62 | 8 | 9.0 | 12.0 | 0.00 | 0.00 | 0.00 | 27 | 1020.0 |
| 20260502183005 | 60 | 360 | 5.0 | 9.0 | 0.00 | 0.00 | 0.00 | 29 | 1019.9 |
| 20260502181508 | 60 | 1 | 3.0 | 10.0 | 0.00 | 0.00 | 0.00 | 28 | 1020.1 |
| 20260502163014 | 57 | 359 | 6.0 | 9.0 | 0.00 | 0.00 | 0.00 | 28 | 1020.6 |
| 20260502161507 | 56 | 360 | 5.0 | 9.0 | 0.00 | 0.00 | 0.00 | 28 | 1020.5 |
| 20260502151516 | 53 | 349 | 1.0 | 6.0 | 0.00 | 0.00 | 0.00 | 33 | 1020.5 |
| 20260502123014 | 46 | 243 | 9.0 | 12.0 | 0.00 | 0.00 | 0.00 | 37 | 1019.3 |
| 20260502121518 | 45 | 234 | 8.0 | 12.0 | 0.00 | 0.00 | 0.00 | 40 | 1019.2 |
| 20260502114521 | 46 | 207 | 10.0 | 16.0 | 0.00 | 0.00 | 0.00 | 35 | 1019.2 |
| 20260502113014 | 46 | 238 | 9.0 | 16.0 | 0.00 | 0.00 | 0.00 | 35 | 1019.3 |
| 20260502111520 | 46 | 223 | 9.0 | 13.0 | 0.00 | 0.00 | 0.00 | 36 | 1019.4 |
| 20260502110025 | 46 | 240 | 8.0 | 14.0 | 0.00 | 0.00 | 0.00 | 35 | 1019.4 |
| 20260502104509 | 45 | 247 | 7.0 | 14.0 | 0.00 | 0.00 | 0.00 | 36 | 1019.4 |
| 20260502103014 | 45 | 245 | 9.0 | 15.0 | 0.00 | 0.00 | 0.00 | 36 | 1019.5 |
| 20260502101521 | 45 | 233 | 11.0 | 15.0 | 0.00 | 0.00 | 0.00 | 35 | 1019.5 |
| 20260502091516 | 45 | 229 | 8.0 | 12.0 | 0.00 | 0.00 | 0.00 | 38 | 1019.4 |
| 20260502071508 | 45 | 243 | 13.0 | 18.0 | 0.00 | 0.00 | 0.00 | 40 | 1020.0 |
| 20260502070018 | 45 | 227 | 9.0 | 17.0 | 0.00 | 0.00 | 0.00 | 41 | 1020.1 |
| 20260502064520 | 45 | 252 | 10.0 | 17.0 | 0.00 | 0.00 | 0.00 | 40 | 1020.1 |
| 20260502063026 | 45 | 243 | 8.0 | 13.0 | 0.00 | 0.00 | 0.00 | 41 | 1020.2 |
| 20260502061528 | 46 | 224 | 10.0 | 15.0 | 0.00 | 0.00 | 0.00 | 40 | 1020.2 |
| 20260502060015 | 46 | 251 | 10.0 | 15.0 | 0.00 | 0.00 | 0.00 | 39 | 1020.2 |
| 20260502054520 | 46 | 238 | 9.0 | 15.0 | 0.00 | 0.00 | 0.00 | 39 | 1020.2 |
| 20260502053023 | 46 | 235 | 8.0 | 14.0 | 0.00 | 0.00 | 0.00 | 39 | 1020.2 |
| 20260502051531 | 46 | 240 | 9.0 | 15.0 | 0.00 | 0.00 | 0.00 | 39 | 1020.2 |
| 20260502050028 | 47 | 230 | 11.0 | 16.0 | 0.00 | 0.00 | 0.00 | 39 | 1020.3 |
| 20260502044519 | 46 | 235 | 11.0 | 17.0 | 0.00 | 0.00 | 0.00 | 41 | 1020.3 |
| 20260502043023 | 46 | 238 | 11.0 | 15.0 | 0.00 | 0.00 | 0.00 | 42 | 1020.2 |
| 20260502041526 | 47 | 241 | 12.0 | 15.0 | 0.00 | 0.00 | 0.00 | 41 | 1020.3 |
| 20260502040037 | 47 | 252 | 10.0 | 17.0 | 0.00 | 0.00 | 0.00 | 42 | 1020.3 |
| 20260502034528 | 47 | 257 | 12.0 | 17.0 | 0.00 | 0.00 | 0.00 | 42 | 1020.1 |
| 20260502033019 | 47 | 264 | 8.0 | 16.0 | 0.00 | 0.00 | 0.00 | 42 | 1020.1 |
| 20260502031524 | 48 | 229 | 9.0 | 13.0 | 0.00 | 0.00 | 0.00 | 41 | 1020.1 |
| 20260502030028 | 48 | 234 | 7.0 | 10.0 | 0.00 | 0.00 | 0.00 | 41 | 1020.0 |
| 20260502024531 | 48 | 236 | 6.0 | 10.0 | 0.00 | 0.00 | 0.00 | 42 | 1019.9 |
| 20260502023016 | 48 | 236 | 4.0 | 7.0 | 0.00 | 0.00 | 0.00 | 44 | 1019.8 |
| 20260502021520 | 49 | 228 | 4.0 | 6.0 | 0.00 | 0.00 | 0.00 | 43 | 1019.8 |
| 20260502020024 | 52 | 248 | 5.0 | 7.0 | 0.00 | 0.00 | 0.00 | 39 | 1019.8 |
| 20260502014522 | 59 | 114 | 0.0 | 4.0 | 0.00 | 0.00 | 0.00 | 27 | 1019.6 |
| 20260502013014 | 60 | 103 | 2.0 | 4.0 | 0.00 | 0.00 | 0.00 | 26 | 1019.7 |
| 20260502011518 | 61 | 324 | 0.0 | 2.0 | 0.00 | 0.00 | 0.00 | 26 | 1019.6 |
| 20260502010022 | 61 | 339 | 2.0 | 6.0 | 0.00 | 0.00 | 0.00 | 25 | 1019.8 |
| 20260502004528 | 61 | 5 | 4.0 | 6.0 | 0.00 | 0.00 | 0.00 | 24 | 1019.9 |
| 20260502003012 | 61 | 1 | 2.0 | 5.0 | 0.00 | 0.00 | 0.00 | 25 | 1019.9 |
| 20260502001521 | 61 | 348 | 3.0 | 7.0 | 0.00 | 0.00 | 0.00 | 25 | 1020.0 |
| 20260502000023 | 61 | 342 | 2.0 | 7.0 | 0.00 | 0.00 | 0.00 | 24 | 1020.1 |
| 20260501234525 | 62 | 21 | 3.0 | 8.0 | 0.00 | 0.00 | 0.00 | 24 | 1020.2 |
| 20260501233028 | 61 | 344 | 4.0 | 10.0 | 0.00 | 0.00 | 0.00 | 24 | 1020.2 |
| 20260501231532 | 61 | 69 | 4.0 | 7.0 | 0.00 | 0.00 | 0.00 | 23 | 1020.1 |
| 20260501230029 | 61 | 129 | 3.0 | 9.0 | 0.00 | 0.00 | 0.00 | 24 | 1020.2 |
| 20260501224527 | 61 | 28 | 4.0 | 7.0 | 0.00 | 0.00 | 0.00 | 24 | 1020.3 |
| 20260501223034 | 61 | 85 | 6.0 | 10.0 | 0.00 | 0.00 | 0.00 | 23 | 1020.1 |
| 20260501221528 | 61 | 60 | 4.0 | 10.0 | 0.00 | 0.00 | 0.00 | 26 | 1020.3 |
| 20260501220028 | 60 | 300 | 3.0 | 9.0 | 0.00 | 0.00 | 0.00 | 24 | 1020.4 |
| 20260501214525 | 60 | 32 | 4.0 | 9.0 | 0.00 | 0.00 | 0.00 | 28 | 1020.5 |
| 20260501213027 | 60 | 1 | 4.0 | 10.0 | 0.00 | 0.00 | 0.00 | 24 | 1020.7 |
| 20260501211526 | 60 | 13 | 4.0 | 10.0 | 0.00 | 0.00 | 0.00 | 25 | 1020.8 |